TimeCEST,TemperatureF,Dew PointF,Humidity,Sea Level PressureIn,VisibilityMPH,Wind Direction,Wind SpeedMPH,Gust SpeedMPH,PrecipitationIn,Events,Conditions,WindDirDegrees,DateUTC
12:25 AM,59.0,55.4,88,30.18,6.2,NE,4.6,-,N/A,,Unknown,40,2013-08-28 22:25:00
12:55 AM,57.2,55.4,94,30.18,6.2,North,2.3,-,N/A,,Unknown,350,2013-08-28 22:55:00
1:25 AM,57.2,55.4,94,30.18,6.2,NNE,1.2,-,N/A,,Unknown,30,2013-08-28 23:25:00
1:55 AM,55.4,53.6,94,30.15,6.2,East,1.2,-,N/A,,Partly Cloudy,100,2013-08-28 23:55:00
2:02 AM,55.4,51.8,88,30.15,4.3,East,1.2,-,N/A,,Mist,100,2013-08-29 00:02:00
2:07 AM,55.4,53.6,94,30.15,5.0,East,1.2,-,N/A,,Mist,100,2013-08-29 00:07:00
2:11 AM,55.4,53.6,94,30.15,3.7,East,1.2,-,N/A,,Mist,80,2013-08-29 00:11:00
2:15 AM,55.4,53.6,94,30.15,-9999.0,NE,1.2,-,N/A,,Mist,50,2013-08-29 00:15:00
2:19 AM,55.4,53.6,94,30.15,3.1,North,1.2,-,N/A,,Mist,360,2013-08-29 00:19:00
2:25 AM,53.6,51.8,94,30.15,5.0,WNW,2.3,-,N/A,,Mist,300,2013-08-29 00:25:00
2:36 AM,53.6,51.8,94,30.15,4.3,SSW,1.2,-,N/A,,Mist,210,2013-08-29 00:36:00
2:43 AM,53.6,51.8,94,30.15,-9999.0,SSW,1.2,-,N/A,,Mist,210,2013-08-29 00:43:00
2:49 AM,53.6,51.8,94,30.15,3.1,WSW,1.2,-,N/A,,Mist,250,2013-08-29 00:49:00
2:55 AM,51.8,50.0,94,30.15,-9999.0,West,1.2,-,N/A,,Mist,280,2013-08-29 00:55:00
2:59 AM,51.8,50.0,94,30.15,3.1,WNW,1.2,-,N/A,,Mist,290,2013-08-29 00:59:00
3:10 AM,53.6,51.8,94,30.15,-9999.0,WSW,1.2,-,N/A,,Mist,250,2013-08-29 01:10:00
3:14 AM,53.6,51.8,94,30.15,3.7,SW,1.2,-,N/A,,Partly Cloudy,220,2013-08-29 01:14:00
3:18 AM,53.6,51.8,94,30.15,2.5,SSW,1.2,-,N/A,,Partly Cloudy,210,2013-08-29 01:18:00
3:25 AM,53.6,51.8,94,30.15,3.1,WSW,1.2,-,N/A,,Partly Cloudy,250,2013-08-29 01:25:00
3:30 AM,53.6,51.8,94,30.15,5.0,NW,1.2,-,N/A,,Mist,310,2013-08-29 01:30:00
3:32 AM,53.6,51.8,94,30.15,4.3,NW,1.2,-,N/A,,Mist,310,2013-08-29 01:32:00
3:38 AM,51.8,51.8,100,30.15,5.0,WNW,2.3,-,N/A,,Mist,290,2013-08-29 01:38:00
3:42 AM,51.8,51.8,100,30.15,3.7,West,2.3,-,N/A,,Mist,280,2013-08-29 01:42:00
3:46 AM,53.6,51.8,94,30.15,0.7,West,1.2,-,N/A,,Mist,280,2013-08-29 01:46:00
3:50 AM,53.6,51.8,94,30.15,-9999.0,NW,1.2,-,N/A,,Mist,310,2013-08-29 01:50:00
3:55 AM,51.8,51.8,100,30.15,-9999.0,NW,1.2,-,N/A,,Mist,310,2013-08-29 01:55:00
3:59 AM,51.8,51.8,100,30.15,0.6,WNW,2.3,-,N/A,Fog,Fog,300,2013-08-29 01:59:00
4:11 AM,51.8,50.0,94,30.15,0.4,WNW,2.3,-,N/A,Fog,Fog,290,2013-08-29 02:11:00
4:13 AM,51.8,50.0,94,30.15,-9999.0,West,2.3,-,N/A,,Mist,280,2013-08-29 02:13:00
4:18 AM,51.8,50.0,94,30.15,-9999.0,West,2.3,-,N/A,,Partly Cloudy,270,2013-08-29 02:18:00
4:25 AM,51.8,50.0,94,30.15,-9999.0,West,1.2,-,N/A,,Partly Cloudy,270,2013-08-29 02:25:00
4:29 AM,51.8,50.0,94,30.15,3.7,WNW,1.2,-,N/A,,Mist,290,2013-08-29 02:29:00
4:33 AM,51.8,50.0,94,30.15,1.8,WNW,1.2,-,N/A,,Mist,290,2013-08-29 02:33:00
4:37 AM,51.8,50.0,94,30.15,0.5,WNW,1.2,-,N/A,Fog,Fog,290,2013-08-29 02:37:00
4:38 AM,51.8,50.0,94,30.15,1.1,WNW,1.2,-,N/A,,Mist,300,2013-08-29 02:38:00
4:45 AM,51.8,50.0,94,30.15,0.9,WNW,1.2,-,N/A,,Mist,300,2013-08-29 02:45:00
4:50 AM,51.8,51.8,100,30.15,1.0,West,1.2,-,N/A,,Mist,270,2013-08-29 02:50:00
4:55 AM,51.8,50.0,94,30.15,1.6,West,1.2,-,N/A,,Mist,260,2013-08-29 02:55:00
5:01 AM,51.8,50.0,94,30.15,0.9,WNW,1.2,-,N/A,,Mist,300,2013-08-29 03:01:00
5:05 AM,51.8,50.0,94,30.15,1.3,WNW,1.2,-,N/A,,Partly Cloudy,300,2013-08-29 03:05:00
5:11 AM,50.0,50.0,100,30.15,3.1,West,1.2,-,N/A,,Partly Cloudy,270,2013-08-29 03:11:00
5:14 AM,50.0,48.2,94,30.15,-9999.0,WSW,1.2,-,N/A,,Scattered Clouds,240,2013-08-29 03:14:00
5:19 AM,51.8,50.0,94,30.15,3.1,SW,1.2,-,N/A,,Partly Cloudy,220,2013-08-29 03:19:00
5:25 AM,51.8,50.0,94,30.15,3.7,Calm,Calm,-,N/A,,Mist,0,2013-08-29 03:25:00
5:38 AM,50.0,50.0,100,30.15,3.7,West,1.2,-,N/A,,Mist,280,2013-08-29 03:38:00
5:44 AM,50.0,50.0,100,30.15,-9999.0,WSW,1.2,-,N/A,,Mist,240,2013-08-29 03:44:00
5:51 AM,50.0,50.0,100,30.15,1.8,SW,1.2,-,N/A,,Mist,220,2013-08-29 03:51:00
5:55 AM,50.0,48.2,94,30.15,0.5,SW,1.2,-,N/A,Fog,Fog,230,2013-08-29 03:55:00
5:59 AM,50.0,50.0,100,30.15,-9999.0,WSW,1.2,-,N/A,Fog,Fog,240,2013-08-29 03:59:00
6:02 AM,50.0,50.0,100,30.15,-9999.0,WSW,1.2,-,N/A,,Mist,250,2013-08-29 04:02:00
6:07 AM,50.0,48.2,94,30.15,3.7,WSW,1.2,-,N/A,,Mist,240,2013-08-29 04:07:00
6:11 AM,50.0,48.2,94,30.15,-9999.0,SW,1.2,-,N/A,,Mist,230,2013-08-29 04:11:00
6:15 AM,50.0,48.2,94,30.15,1.1,WSW,1.2,-,N/A,,Mist,240,2013-08-29 04:15:00
6:19 AM,50.0,48.2,94,30.15,0.8,West,1.2,-,N/A,,Mist,280,2013-08-29 04:19:00
6:25 AM,48.2,48.2,100,30.15,1.1,WNW,4.6,-,N/A,,Mist,290,2013-08-29 04:25:00
6:26 AM,50.0,50.0,100,30.15,0.9,West,4.6,-,N/A,,Mist,280,2013-08-29 04:26:00
6:33 AM,48.2,46.4,93,30.15,0.2,WSW,3.5,-,N/A,Fog,Fog,240,2013-08-29 04:33:00
6:41 AM,50.0,48.2,94,30.15,0.6,SW,2.3,-,N/A,Fog,Fog,220,2013-08-29 04:41:00
6:44 AM,50.0,48.2,94,30.15,1.4,SSW,2.3,-,N/A,,Mist,210,2013-08-29 04:44:00
6:49 AM,50.0,48.2,94,30.15,0.7,SW,1.2,-,N/A,,Mist,220,2013-08-29 04:49:00
6:55 AM,50.0,48.2,94,30.15,2.5,SW,1.2,-,N/A,,Mist,220,2013-08-29 04:55:00
7:08 AM,50.0,50.0,100,30.15,-9999.0,SSW,1.2,-,N/A,,Mist,200,2013-08-29 05:08:00
7:09 AM,50.0,50.0,100,30.15,2.8,South,1.2,-,N/A,,Mist,190,2013-08-29 05:09:00
7:20 AM,50.0,50.0,100,30.15,3.1,SSW,2.3,-,N/A,,Scattered Clouds,200,2013-08-29 05:20:00
7:25 AM,50.0,50.0,100,30.18,0.6,South,2.3,-,N/A,Fog,Fog,190,2013-08-29 05:25:00
7:38 AM,51.8,50.0,94,30.18,-9999.0,SSW,2.3,-,N/A,,Overcast,200,2013-08-29 05:38:00
7:48 AM,51.8,51.8,100,30.18,3.1,SW,1.2,-,N/A,,Mostly Cloudy,230,2013-08-29 05:48:00
7:55 AM,51.8,51.8,100,30.18,3.1,WSW,1.2,-,N/A,,Mostly Cloudy,240,2013-08-29 05:55:00
8:03 AM,53.6,53.6,100,30.18,-9999.0,West,1.2,-,N/A,,Mostly Cloudy,280,2013-08-29 06:03:00
8:07 AM,53.6,53.6,100,30.18,2.2,West,1.2,-,N/A,,Mostly Cloudy,280,2013-08-29 06:07:00
8:08 AM,55.4,55.4,100,30.18,-9999.0,West,1.2,-,N/A,,Overcast,260,2013-08-29 06:08:00
8:25 AM,57.2,55.4,94,30.18,-9999.0,SW,1.2,-,N/A,,Overcast,230,2013-08-29 06:25:00
8:40 AM,57.2,55.4,94,30.18,-9999.0,SW,2.3,-,N/A,,Overcast,220,2013-08-29 06:40:00
8:45 AM,59.0,57.2,94,30.18,-9999.0,SW,1.2,-,N/A,,Overcast,220,2013-08-29 06:45:00
8:55 AM,59.0,57.2,94,30.18,-9999.0,SSW,1.2,-,N/A,,Overcast,200,2013-08-29 06:55:00
9:04 AM,60.8,57.2,88,30.18,3.1,SSW,2.3,-,N/A,,Overcast,200,2013-08-29 07:04:00
9:08 AM,60.8,57.2,88,30.18,2.8,SW,1.2,-,N/A,,Overcast,220,2013-08-29 07:08:00
9:18 AM,60.8,57.2,88,30.18,-9999.0,WNW,1.2,-,N/A,,Overcast,290,2013-08-29 07:18:00
9:25 AM,60.8,57.2,88,30.18,-9999.0,West,1.2,-,N/A,,Overcast,280,2013-08-29 07:25:00
9:30 AM,62.6,59.0,88,30.18,3.1,West,1.2,-,N/A,,Overcast,260,2013-08-29 07:30:00
9:45 AM,64.4,59.0,83,30.18,3.7,WSW,1.2,-,N/A,,Scattered Clouds,250,2013-08-29 07:45:00
9:48 AM,64.4,59.0,83,30.18,4.3,West,1.2,-,N/A,,Partly Cloudy,270,2013-08-29 07:48:00
9:55 AM,64.4,59.0,83,30.18,4.3,West,2.3,-,N/A,,Partly Cloudy,260,2013-08-29 07:55:00
9:56 AM,66.2,59.0,78,30.18,5.0,WSW,2.3,-,N/A,,Partly Cloudy,250,2013-08-29 07:56:00
10:09 AM,66.2,59.0,78,30.18,5.6,West,4.6,-,N/A,,Haze,270,2013-08-29 08:09:00
10:25 AM,66.2,59.0,78,30.18,6.2,West,5.8,-,N/A,,Partly Cloudy,280,2013-08-29 08:25:00
10:47 AM,68.0,59.0,73,30.18,6.2,NW,4.6,-,N/A,,Partly Cloudy,310,2013-08-29 08:47:00
10:55 AM,69.8,59.0,68,30.18,6.2,WNW,3.5,-,N/A,,Partly Cloudy,300,2013-08-29 08:55:00
11:25 AM,69.8,57.2,64,30.18,6.2,West,5.8,-,N/A,,Scattered Clouds,280,2013-08-29 09:25:00
11:55 AM,69.8,55.4,60,30.18,6.2,West,5.8,-,N/A,,Mostly Cloudy,270,2013-08-29 09:55:00
12:25 PM,71.6,55.4,57,30.18,6.2,West,5.8,-,N/A,,Scattered Clouds,280,2013-08-29 10:25:00
12:55 PM,71.6,53.6,53,30.18,6.2,West,5.8,-,N/A,,Mostly Cloudy,280,2013-08-29 10:55:00
1:25 PM,71.6,55.4,57,30.18,6.2,West,5.8,-,N/A,,Mostly Cloudy,260,2013-08-29 11:25:00
1:55 PM,73.4,55.4,53,30.18,6.2,WNW,6.9,-,N/A,,Scattered Clouds,290,2013-08-29 11:55:00
2:25 PM,75.2,53.6,47,30.15,6.2,WSW,4.6,-,N/A,,Mostly Cloudy,240,2013-08-29 12:25:00
2:55 PM,75.2,51.8,44,30.15,6.2,SW,6.9,-,N/A,,Partly Cloudy,230,2013-08-29 12:55:00
3:25 PM,77.0,51.8,41,30.15,6.2,West,8.1,-,N/A,,Partly Cloudy,270,2013-08-29 13:25:00
3:55 PM,75.2,50.0,41,30.15,6.2,WSW,8.1,-,N/A,,Partly Cloudy,250,2013-08-29 13:55:00
4:25 PM,75.2,50.0,41,30.15,6.2,West,8.1,-,N/A,,Partly Cloudy,260,2013-08-29 14:25:00
4:43 PM,75.2,48.2,38,30.15,6.2,West,8.1,-,N/A,,Mostly Cloudy,260,2013-08-29 14:43:00
4:55 PM,75.2,48.2,38,30.15,6.2,WSW,6.9,-,N/A,,Partly Cloudy,240,2013-08-29 14:55:00
5:25 PM,73.4,50.0,44,30.15,6.2,WSW,8.1,-,N/A,,Partly Cloudy,250,2013-08-29 15:25:00
5:55 PM,73.4,51.8,47,30.15,6.2,West,5.8,-,N/A,,Unknown,270,2013-08-29 15:55:00
6:25 PM,73.4,50.0,44,30.15,6.2,WNW,10.4,-,N/A,,Mostly Cloudy,290,2013-08-29 16:25:00
6:55 PM,73.4,50.0,44,30.15,6.2,NW,9.2,-,N/A,,Mostly Cloudy,310,2013-08-29 16:55:00
7:25 PM,71.6,50.0,46,30.15,6.2,NW,8.1,-,N/A,,Partly Cloudy,320,2013-08-29 17:25:00
7:55 PM,69.8,50.0,49,30.15,6.2,NW,5.8,-,N/A,,Unknown,320,2013-08-29 17:55:00
8:25 PM,66.2,50.0,56,30.15,6.2,NW,4.6,-,N/A,,Unknown,310,2013-08-29 18:25:00
8:41 PM,66.2,50.0,56,30.15,3.1,WNW,3.5,-,N/A,,Haze,300,2013-08-29 18:41:00
8:45 PM,66.2,50.0,56,30.15,6.2,WNW,2.3,-,N/A,,Unknown,300,2013-08-29 18:45:00
8:55 PM,66.2,50.0,56,30.15,3.7,NW,2.3,-,N/A,,Haze,310,2013-08-29 18:55:00
8:57 PM,64.4,50.0,59,30.15,5.0,NW,3.5,-,N/A,,Haze,310,2013-08-29 18:57:00
9:03 PM,64.4,50.0,59,30.15,3.7,WNW,3.5,-,N/A,,Haze,300,2013-08-29 19:03:00
9:10 PM,62.6,51.8,68,30.15,5.6,WNW,2.3,-,N/A,,Haze,290,2013-08-29 19:10:00
9:25 PM,60.8,51.8,72,30.15,6.2,WNW,2.3,-,N/A,,Unknown,290,2013-08-29 19:25:00
9:55 PM,59.0,51.8,77,30.15,6.2,SSW,2.3,-,N/A,,Unknown,200,2013-08-29 19:55:00
10:25 PM,57.2,50.0,77,30.15,6.2,SSW,2.3,-,N/A,,Unknown,210,2013-08-29 20:25:00
10:55 PM,55.4,51.8,88,30.15,6.2,Calm,Calm,-,N/A,,Unknown,0,2013-08-29 20:55:00
11:25 PM,55.4,51.8,88,30.15,6.2,Calm,Calm,-,N/A,,Scattered Clouds,0,2013-08-29 21:25:00
11:55 PM,55.4,50.0,82,30.15,6.2,SSW,2.3,-,N/A,,Unknown,200,2013-08-29 21:55:00